Weather History for KPKB - March, 2013

Change the Weather History Date:

Thursday, March 28, 2013

  Actual Average Record
Temperature  
Mean Temperature 39 °F 48 °F  
Max Temperature 48 °F 59 °F 85 °F (1989)
Min Temperature 30 °F 37 °F 15 °F (1982)
Degree Days  
Heating Degree Days 26 17  
Month to date heating degree days 751 619  
Since 1 July heating degree days 4487 4409  
Cooling Degree Days 0 0  
Month to date cooling degree days 0 0  
Year to date cooling degree days 0 0  
Moisture  
Dew Point 23 °F    
Average Humidity 55    
Maximum Humidity 72    
Minimum Humidity 37    
Precipitation  
Precipitation 0.00 in 0.12 in 1.10 in (2005)
Month to date precipitation 3.04 3.35  
Year to date precipitation 8.06 9.00  
Sea Level Pressure  
Sea Level Pressure 30.30 in    
Wind  
Wind Speed 6 mph (West)    
Max Wind Speed 17 mph    
Max Gust Speed 24 mph    
Visibility 10 miles    
Events      
T = Trace of Precipitation, MM = Missing Value Source: NWS Daily Summary

Daily Weather History Graph

Daily Weather History Graph

Search for Another Location

Airport or City:

Trip Planner

Search our weather history database for the weather conditions in past years. The results will help you decide how hot, cold, wet, or windy it might be!

Date:

Astronomy

Mar. 28, 2013 Rise Set
Actual Time 7:16 AM EDT 7:45 PM EDT
Civil Twilight 6:49 AM EDT 8:12 PM EDT
Nautical Twilight 6:17 AM EDT 8:44 PM EDT
Astronomical Twilight 5:45 AM EDT 9:17 PM EDT
Moon 9:35 PM EDT (3/28) 7:43 AM EDT (3/28)
Length of Visible Light 13h 23m
Length of Day
12h 29m
Full, 98% of the Moon is Illuminated
Mar 28
Full
Apr 3
Last Quarter
Apr 10
New
Apr 18
First Quarter
Apr 25
Full

Hourly Weather History & Observations

Time (EDT) Temp. Windchill Dew Point Humidity Pressure Visibility Wind Dir Wind Speed Gust Speed Precip Events Conditions
12:53 AM 37.0 °F - 21.9 °F 54% 30.27 in 10.0 mi Calm Calm - N/A   Overcast
1:53 AM 37.0 °F 31.0 °F 21.9 °F 54% 30.27 in 10.0 mi West 8.1 mph - N/A   Overcast
2:53 AM 35.1 °F 32.2 °F 21.9 °F 59% 30.27 in 10.0 mi West 3.5 mph - N/A   Partly Cloudy
3:53 AM 33.1 °F 27.7 °F 23.0 °F 66% 30.27 in 10.0 mi West 5.8 mph - N/A   Clear
4:53 AM 32.0 °F 26.4 °F 23.0 °F 69% 30.27 in 10.0 mi WSW 5.8 mph - N/A   Clear
5:53 AM 30.9 °F 27.5 °F 23.0 °F 72% 30.27 in 10.0 mi SW 3.5 mph - N/A   Clear
6:53 AM 30.0 °F 24.1 °F 21.9 °F 72% 30.28 in 10.0 mi WSW 5.8 mph - N/A   Clear
7:53 AM 30.9 °F 25.2 °F 23.0 °F 72% 30.30 in 10.0 mi WSW 5.8 mph - N/A   Clear
8:53 AM 33.1 °F 28.7 °F 23.0 °F 66% 30.31 in 10.0 mi West 4.6 mph - N/A   Clear
9:53 AM 36.0 °F 28.5 °F 23.0 °F 59% 30.32 in 10.0 mi West 10.4 mph - N/A   Clear
10:53 AM 39.9 °F 35.8 °F 24.1 °F 53% 30.32 in 10.0 mi Variable 5.8 mph - N/A   Clear
11:53 AM 43.0 °F 36.8 °F 24.1 °F 47% 30.32 in 10.0 mi NW 11.5 mph 17.3 mph N/A   Scattered Clouds
12:53 PM 45.0 °F 39.7 °F 21.9 °F 40% 30.31 in 10.0 mi NNW 10.4 mph - N/A   Mostly Cloudy
1:53 PM 46.9 °F - 21.9 °F 37% 30.29 in 10.0 mi NNW 12.7 mph 21.9 mph N/A   Mostly Cloudy
2:53 PM 46.9 °F - 23.0 °F 39% 30.28 in 10.0 mi NW 12.7 mph 20.7 mph N/A   Overcast
3:53 PM 46.9 °F - 23.0 °F 39% 30.28 in 10.0 mi West 9.2 mph - N/A   Overcast
4:53 PM 48.0 °F - 24.1 °F 39% 30.28 in 10.0 mi WNW 8.1 mph - N/A   Overcast
5:53 PM 46.9 °F - 23.0 °F 39% 30.28 in 10.0 mi WNW 11.5 mph 17.3 mph N/A   Overcast
6:53 PM 46.0 °F 41.9 °F 23.0 °F 40% 30.30 in 10.0 mi WNW 8.1 mph - N/A   Overcast
7:53 PM 46.0 °F 43.9 °F 24.1 °F 42% 30.30 in 10.0 mi WNW 4.6 mph - N/A   Overcast
8:53 PM 45.0 °F - 25.0 °F 46% 30.31 in 10.0 mi Calm Calm - N/A   Overcast
9:53 PM 43.0 °F - 27.0 °F 53% 30.32 in 10.0 mi Calm Calm - N/A   Overcast
10:53 PM 42.1 °F - 27.0 °F 55% 30.33 in 10.0 mi Calm Calm - N/A   Overcast
11:53 PM 42.1 °F - 26.1 °F 53% 30.33 in 10.0 mi Calm Calm - N/A   Overcast